JCSAT-17

Last updated on Thu Nov 21 2024 00:02:44 GMT+0000 (Coordinated Universal Time)

1 45245U 20013A 24324.89346947 -.00000319 00000+0 00000+0 0 9993 2 45245 5.5151 351.3054 0003405 255.2978 270.4620 1.00270216 17480
UTC large
Height (km)
Speed (km/s)
/
Latitude / Longitude
Inclination (degrees)
Orbital Period (minutes)
Azimuth
Elevation
Range (km)
Doppler Factor

Next 0 passes for location: London (51.5072 / 0.1276)

Sorry there are no passes over London.